Station MRNA2 - Marmion Island, AK Image indicating link to RSS feed of recent meteorological observations for station MRNA2


Conditions at MRNA2 as of
(9:22 am AKDT)
1722 GMT on 06/12/2024:
     

Click on the graph icon in the table below to see a time series plot of the last five days of that observation.

5-day plot - Wind Direction Wind Direction (WDIR): E ( 100 deg true )
5-day plot - Wind Speed Wind Speed (WSPD): 6.0 kts
5-day plot - Wind Gust Wind Gust (GST): 9.9 kts
5-day plot - Air Temperature Air Temperature (ATMP): 50.0 °F
5-day plot - Dew Point Dew Point (DEWP): 45.5 °F
5-day plot - Wind Chill Wind Chill (CHILL): 47.3 °F
5-day plot - Wind Speed at 10 Meters Wind Speed at 10 meters (WSPD10M): 7.8 kts
5-day plot - Wind Speed at 20 Meters Wind Speed at 20 meters (WSPD20M): 7.8 kts
5-day plot -  Wind Speed, Wind Gust and Atmospheric Pressure Combined plot of Wind Speed, Gust, and Air Pressure
Previous observations
TIME
(AKDT)
5-day plot - Wind Direction
WDIR
 
5-day plot - Wind Speed
WSPD
kts
5-day plot - Wind Gust
GST
kts
5-day plot - Wave Height
WVHT
ft
5-day plot - Dominant Wave Period
DPD
sec
5-day plot - Average Wave Period
APD
sec
5-day plot - Mean Wave Direction
MWD
 
5-day plot - Atmospheric Pressure
PRES
in
5-day plot - Pressure Tendency
PTDY
in
5-day plot - Air Temperature
ATMP
°F
5-day plot - Water Temperature
WTMP
°F
5-day plot - Dew Point
DEWP
°F
5-day plot - Salinity
SAL
psu
5-day plot - Visibility
VIS
nmi
5-day plot - Tide (above MLLW)
TIDE
ft
2024-06-12 09:12 am E 8.0 11.1------ 49.8- 45.3---
2024-06-12 09:02 am E 8.9 11.1------ 49.8- 45.3---
2024-06-12 08:52 am E 8.0 11.1------ 49.8- 45.3---
2024-06-12 08:42 am E 8.0 11.1------ 50.0- 45.1---
2024-06-12 08:32 am SE 4.1 8.0------ 51.1- 43.9---
2024-06-12 08:22 amSSE 1.9 5.1------ 50.7- 43.7---
2024-06-12 08:12 amSSE 4.1 6.0------ 50.5- 43.7---
2024-06-12 08:02 am S 1.9 6.0------ 50.7- 45.3---
2024-06-12 07:52 am S 1.9 5.1------ 50.2- 45.0---
2024-06-12 07:42 amSSE 1.9 6.0------ 50.0- 44.6---
2024-06-12 07:32 amSSE 1.9 5.1------ 49.8- 45.0---
2024-06-12 07:22 am SE 1.9 4.1------ 49.6- 45.0---
2024-06-12 07:12 amESE 2.9 4.1------ 49.5- 44.6---
2024-06-12 07:02 am E 4.1 6.0------ 49.1- 44.8---
2024-06-12 06:52 am E 4.1 7.0------ 49.1- 44.6---
2024-06-12 06:42 am E 4.1 8.0------ 49.1- 44.6---
2024-06-12 06:32 am E 5.1 8.0------ 49.1- 44.8---
2024-06-12 06:22 amENE 4.1 7.0------ 48.7- 44.4---
2024-06-12 06:12 amENE 5.1 8.9------ 48.6- 44.6---
2024-06-12 06:02 am E 5.1 8.9------ 48.9- 44.2---
2024-06-12 05:52 am E 2.9 6.0------ 49.3- 43.5---
2024-06-12 05:42 am SE 1.9 2.9------ 49.1- 43.3---
2024-06-12 05:32 am SE 1.9 2.9------ 49.1- 43.7---
2024-06-12 05:22 am- 0.0 1.0------ 48.9- 43.3---
2024-06-12 05:12 am- 0.0 1.0------ 48.7- 43.7---
2024-06-12 05:02 am- 0.0 2.9------ 48.6- 43.7---
2024-06-12 04:52 am- 0.0 1.9------ 48.6- 43.7---
2024-06-12 04:42 am SW 1.0 2.9------ 48.7- 43.2---
2024-06-12 04:32 amWSW 1.0 4.1------ 49.1- 43.2---
2024-06-12 04:22 am W 1.9 5.1------ 49.5- 42.6---
2024-06-12 04:12 am W 1.9 8.9------ 50.0- 42.1---
2024-06-12 04:02 amWSW 1.9 11.1------ 50.2- 41.7---
2024-06-12 03:52 amWSW 1.9 6.0------ 50.4- 41.4---
2024-06-12 03:42 am SW 1.9 7.0------ 50.4- 41.5---
2024-06-12 03:32 am SW 1.9 7.0------ 50.5- 41.4---
2024-06-12 03:22 am SW 2.9 13.0------ 50.9- 41.0---
2024-06-12 03:12 am SW 2.9 7.0------ 51.1- 40.8---
2024-06-12 03:02 am SW 2.9 12.0------ 51.3- 40.6---
2024-06-12 02:52 am SW 4.1 9.9------ 51.4- 40.5---
2024-06-12 02:42 amSSW 2.9 11.1------ 51.4- 40.5---
2024-06-12 02:32 am SW 2.9 11.1------ 51.6- 40.6---
2024-06-12 02:22 am SW 2.9 8.9------ 51.6- 40.8---
2024-06-12 02:12 am SW 2.9 8.9------ 51.8- 40.8---
2024-06-12 02:02 am SW 2.9 8.0------ 52.0- 40.6---
2024-06-12 01:52 am SW 2.9 8.0------ 52.0- 40.3---
2024-06-12 01:42 am SW 2.9 7.0------ 52.2- 40.5---
2024-06-12 01:32 am SW 2.9 9.9------ 52.2- 40.6---
2024-06-12 01:22 am SW 2.9 8.0------ 52.2- 41.2---
2024-06-12 01:12 am SW 1.9 8.0------ 52.5- 41.5---
2024-06-12 01:02 am SW 1.9 5.1------ 52.7- 41.0---
2024-06-12 12:52 am SW 1.9 8.0------ 52.7- 41.2---
2024-06-12 12:42 am SW 1.9 7.0------ 52.9- 41.2---
2024-06-12 12:32 am SW 1.9 7.0------ 52.9- 41.4---
2024-06-12 12:22 am SW 2.9 7.0------ 53.1- 41.2---
2024-06-12 12:12 amSSW 1.9 6.0------ 53.1- 41.4---
2024-06-12 12:02 am SW 1.9 5.1------ 53.2- 41.5---
2024-06-11 11:52 pm SW 1.9 5.1------ 53.6- 41.7---
2024-06-11 11:42 pmSSW 1.9 6.0------ 53.8- 42.3---
2024-06-11 11:32 pm SW 1.9 5.1------ 54.0- 42.4---
2024-06-11 11:22 pm SW 1.0 6.0------ 54.1- 42.8---
2024-06-11 11:12 pmWSW 1.9 6.0------ 54.0- 42.8---
2024-06-11 11:02 pmWSW 1.9 8.0------ 54.0- 42.6---
2024-06-11 10:52 pm SW 2.9 9.9------ 53.8- 42.3---
2024-06-11 10:42 pm SW 4.1 11.1------ 54.0- 42.3---
2024-06-11 10:32 pm SW 1.9 8.0------ 54.3- 43.2---
2024-06-11 10:22 pm SW 1.9 5.1------ 54.7- 43.3---
2024-06-11 10:12 pm SW 1.9 7.0------ 55.0- 43.9---
2024-06-11 10:02 pm W 1.9 8.0------ 54.9- 43.9---
2024-06-11 09:52 pm W 1.9 7.0------ 54.9- 43.7---
2024-06-11 09:42 pmWSW 1.9 6.0------ 55.2- 43.9---
2024-06-11 09:32 pm SW 1.9 9.9------ 55.4- 43.9---
2024-06-11 09:22 pm SW 1.9 6.0------ 55.4- 43.7---
2024-06-11 09:12 pm SW 1.9 5.1------ 55.6- 43.7---
2024-06-11 09:02 pm SW 2.9 8.0------ 55.6- 43.7---
2024-06-11 08:52 pm SW 2.9 8.9------ 56.3- 44.1---
2024-06-11 08:42 pm SW 1.9 6.0------ 57.2- 45.0---
2024-06-11 08:32 pm SW 1.9 6.0------ 57.4- 45.0---
2024-06-11 08:22 pm SW 1.9 8.0------ 57.9- 45.1---
2024-06-11 08:12 pm SW 1.9 5.1------ 58.3- 45.3---
2024-06-11 08:02 pm SW 1.9 7.0------ 58.5- 45.1---
2024-06-11 07:52 pm SW 1.9 7.0------ 58.6- 45.0---
2024-06-11 07:42 pm SW 1.9 5.1------ 58.8- 45.1---
2024-06-11 07:32 pm SW 2.9 7.0------ 59.0- 45.1---
2024-06-11 07:22 pm SW 2.9 6.0------ 59.2- 45.7---
2024-06-11 07:12 pm SW 2.9 11.1------ 59.4- 45.7---
2024-06-11 07:02 pm SW 4.1 8.0------ 60.1- 45.7---
2024-06-11 06:52 pm SW 2.9 7.0------ 61.3- 46.4---
2024-06-11 06:42 pmSSW 1.9 6.0------ 62.6- 46.9---
2024-06-11 06:32 pmSSW 1.9 8.9------ 63.5- 47.3---
2024-06-11 06:22 pmSSW 1.9 5.1------ 64.4- 47.1---
2024-06-11 06:12 pmSSW 1.9 7.0------ 64.4- 47.5---
2024-06-11 06:02 pm SW 1.9 5.1------ 64.4- 46.9---
2024-06-11 05:52 pm SW 1.9 6.0------ 64.8- 46.9---
2024-06-11 05:42 pm SW 1.9 6.0------ 64.9- 46.9---
2024-06-11 05:32 pm SW 1.9 6.0------ 65.7- 47.7---
2024-06-11 05:22 pm SW 1.9 6.0------ 65.8- 48.0---
2024-06-11 05:12 pm SW 1.9 8.0------ 65.7- 48.2---
2024-06-11 05:02 pm SW 1.9 4.1------ 65.1- 48.6---
2024-06-11 04:52 pm SW 1.9 4.1------ 64.4- 48.4---
2024-06-11 04:42 pm S 1.0 4.1------ 64.4- 48.7---
2024-06-11 04:32 pm NW 1.9 6.0------ 64.4- 48.7---
2024-06-11 04:22 pmWNW 1.9 7.0------ 63.1- 49.5---
2024-06-11 04:12 pm NW 5.1 9.9------ 60.8- 48.2---
2024-06-11 03:52 pm W 1.9 7.0------ 63.1- 48.6---
2024-06-11 03:42 pm NW 2.9 7.0------ 63.0- 47.8---
2024-06-11 03:32 pm NW 2.9 8.9------ 63.3- 48.4---
2024-06-11 03:22 pm NW 1.9 7.0------ 65.8- 49.3---
2024-06-11 03:12 pmSSE 1.9 7.0------ 64.8- 49.1---
2024-06-11 03:02 pmSSW 2.9 9.9------ 64.0- 48.6---
2024-06-11 02:52 pmSSW 1.9 6.0------ 64.0- 49.8---
2024-06-11 02:42 pmWNW 1.9 7.0------ 63.3- 50.9---
2024-06-11 02:32 pmWNW 2.9 8.0------ 61.9- 50.7---
2024-06-11 02:22 pmWNW 2.9 8.9------ 61.2- 49.5---
2024-06-11 02:12 pm NW 4.1 14.0------ 61.2- 49.5---
2024-06-11 02:02 pm SW 1.9 6.0------ 61.7- 50.0---
2024-06-11 01:52 pm SW 1.9 5.1------ 61.5- 50.0---
2024-06-11 01:42 pm W 1.9 5.1------ 61.3- 50.9---
2024-06-11 01:32 pmWNW 1.9 7.0------ 60.6- 50.4---
2024-06-11 01:22 pmWNW 4.1 11.1------ 60.1- 49.1---
2024-06-11 01:12 pmWNW 4.1 12.0------ 61.2- 49.1---
2024-06-11 01:02 pmWNW 2.9 8.9------ 61.7- 49.6---
2024-06-11 12:42 pm W 1.9 7.0------ 61.0- 50.5---
2024-06-11 12:32 pm NW 2.9 8.0------ 60.3- 50.4---
2024-06-11 12:22 pmNNW 1.9 5.1------ 60.4- 49.5---
2024-06-11 12:12 pm NW 2.9 9.9------ 59.5- 48.9---
2024-06-11 12:02 pm NW 2.9 8.9------ 59.7- 49.3---
2024-06-11 11:52 am NE 1.9 4.1------ 59.5- 50.2---
2024-06-11 11:42 am E 2.9 6.0------ 57.0- 51.1---
2024-06-11 11:32 amENE 4.1 7.0------ 55.6- 50.5---
2024-06-11 11:22 amENE 6.0 8.0------ 54.7- 50.2---
2024-06-11 11:12 amENE 6.0 8.9------ 55.6- 49.1---
2024-06-11 11:02 am E 6.0 8.0------ 55.2- 50.0---
2024-06-11 10:52 am E 6.0 8.0------ 54.9- 50.4---
2024-06-11 10:42 am E 5.1 8.0------ 55.0- 50.4---
2024-06-11 10:32 am E 5.1 8.9------ 54.5- 50.4---
2024-06-11 10:22 amENE 6.0 9.9------ 54.3- 50.5---
2024-06-11 10:12 amENE 5.1 8.0------ 55.8- 50.2---
2024-06-11 10:02 am NE 1.9 4.1------ 59.0- 50.2---
2024-06-11 09:52 amESE 1.9 4.1------ 58.6- 51.1---
2024-06-11 09:42 amENE 1.9 4.1------ 57.7- 50.9---
2024-06-11 09:32 am E 1.9 5.1------ 56.3- 50.5---
2024-06-11 09:22 amESE 2.9 5.1------ 55.9- 50.7---
2024-06-11 09:12 amSSE 2.9 5.1------ 54.5- 50.0---
2024-06-11 09:02 amSSE 2.9 6.0------ 54.0- 49.8---
2024-06-11 08:52 amESE 1.9 6.0------ 54.9- 50.2---